Location: Goettingen
(51.5300°N, 9.9433°E)
Time: 16:38:17
(UTC+01:00)

ISS - Pass Details

Date: 21 January 2020
Orbit: 415 x 421 km, 51.6° (Epoch: 18 January)

Event Time Altitude Azimuth Distance (km) Brightness Sun altitude
Rises 19:10:39 0° 214° (SW) 2,355 0.6 -21.5°
Reaches altitude 10° 19:13:01 10° 199° (SSW) 1,493 -0.7 -21.8°
Enters shadow 19:14:05 16° 185° (S) 1,179 -1.4 -22.0°
